Wind_Speed
12 9 11 12 12 14 13 11 11 11 12 14 14 16 16 17 17 18 17 18 19 17 15 16 17 16 16 16 15 13 12 11 11 11 10 10 9 9 6 6 5 6 7
11 9 11 12 13 13 12 12 13 13 14 15 16 16 18 19 18 18 19 19 17 18 18 18 17 17 17 16 14 12 12 10 11 9 8 7 6 6 7 6 3 3 3
10 10 11 12 13 13 13 14 15 15 16 18 18 19 19 19 19 19 20 19 18 18 19 19 20 22 21 20 17 16 14 11 9 8 7 7 5 5 4 5 5 2 3
9 10 10 13 13 13 14 16 18 18 18 19 19 19 19 18 17 19 20 21 21 20 22 24 23 22 21 19 18 17 16 15 11 10 10 7 5 5 4 3 3 2 1
8 10 10 13 15 13 15 17 18 19 19 20 20 19 17 17 19 23 24 24 23 23 24 24 23 20 16 16 16 14 12 10 10 8 9 8 6 5 5 4 3 2 2
8 9 13 16 16 14 16 18 19 18 18 18 18 17 17 19 22 24 24 23 23 23 23 21 19 16 17 17 17 14 13 12 10 10 6 8 8 7 5 2 4 5 6
8 11 16 16 16 15 16 18 17 17 16 17 17 17 18 20 22 23 22 22 20 20 19 19 19 18 18 19 17 16 17 17 13 9 5 5 5 7 6 2 2 3 6
9 14 16 16 14 13 15 15 15 16 16 16 18 19 20 21 21 20 18 19 19 16 17 20 20 20 22 23 22 20 14 20 10 13 9 7 6 6 10 7 8 8 8
12 15 15 15 12 12 12 13 14 15 16 18 19 20 19 18 17 17 17 17 17 17 19 20 19 21 24 24 22 24 17 14 12 11 11 11 11 9 9 12 8 9 10
13 14 12 13 12 13 13 13 13 15 18 19 19 19 17 16 15 14 14 15 16 15 15 18 18 18 20 22 20 19 16 16 16 13 13 13 12 11 10 10 8 10 11
12 11 9 10 12 11 12 14 14 15 18 19 18 16 16 14 13 13 14 17 14 13 15 16 16 15 16 19 17 16 21 19 19 14 14 19 17 12 13 15 16 18 19
11 10 10 10 11 11 13 15 17 17 20 18 15 15 14 12 12 13 13 13 15 16 15 14 16 15 17 16 14 16 17 18 17 19 19 20 21 19 15 21 20 18 21
10 9 11 13 14 12 13 14 16 17 16 13 13 13 11 10 11 10 12 14 13 13 15 14 12 14 15 15 13 14 18 18 18 16 15 13 14 13 14 13 12 21 17
8 9 12 13 11 10 13 15 14 15 15 13 11 11 10 9 8 10 10 13 14 12 14 16 13 12 12 14 13 14 15 14 13 15 14 13 11 16 21 21 20 20 18
8 9 12 13 11 10 11 14 13 12 12 11 10 7 8 7 8 12 10 12 12 14 14 14 14 13 12 15 14 14 17 16 16 17 17 15 13 17 18 19 19 19 19
10 10 12 12 10 9 9 9 12 10 9 9 9 6 5 5 6 9 8 9 11 13 14 14 14 13 12 15 15 18 19 18 16 14 14 14 13 15 18 21 19 19 17
12 12 11 11 10 10 10 9 8 8 7 7 7 6 6 4 5 7 6 9 12 14 14 14 14 13 13 15 17 15 15 17 17 16 16 15 15 16 21 24 23 22 19
12 12 12 10 9 9 8 8 7 6 3 3 4 5 4 5 5 6 7 10 12 13 13 13 14 14 12 13 13 14 15 17 19 19 17 16 17 20 24 26 24 23 18
8 9 9 8 7 7 7 7 6 4 2 1 3 4 4 4 3 4 5 7 10 11 11 13 13 14 13 11 12 14 15 16 17 18 19 20 21 24 27 26 23 22 18
5 5 6 5 2 3 3 4 4 4 3 3 2 3 5 3 2 2 4 6 8 9 10 12 12 14 14 11 13 14 16 16 17 19 20 21 24 25 27 28 28 24 18
5 4 2 3 3 1 1 1 2 2 3 4 4 1 2 1 0 1 4 6 8 8 10 11 13 13 12 11 13 14 14 15 17 18 20 23 26 27 27 27 26 24 19
8 6 4 3 3 3 4 2 3 3 2 3 6 4 3 1 1 2 5 5 5 7 9 11 13 11 9 7 10 12 14 17 20 21 23 26 27 29 28 26 23 20 16
11 8 6 6 6 4 5 6 6 6 5 5 5 5 2 2 2 3 5 7 9 8 10 10 12 8 8 7 7 8 11 15 18 23 27 29 30 29 28 25 22 17 14
12 10 8 8 8 6 5 5 5 5 5 4 4 4 3 2 4 5 6 8 10 9 9 10 9 7 6 6 7 11 13 17 19 22 26 29 32 32 29 24 22 21 20
11 9 6 4 2 2 1 1 2 4 4 4 4 3 3 4 6 8 9 8 9 9 8 9 7 5 4 5 8 11 14 18 22 25 28 32 33 32 28 26 25 24 25
6 6 4 3 2 1 1 1 1 2 3 3 4 5 7 8 9 9 10 8 7 7 9 8 5 4 3 6 8 10 14 19 24 27 32 35 35 32 29 30 28 27 26
Wind_Direction
79 71 84 85 88 82 75 73 69 69 71 76 80 82 85 87 81 83 83 82 81 85 86 80 76 74 69 73 81 80 79 83 85 81 67 70 90 94 85 94 138 192 178
74 82 81 83 81 76 75 73 73 75 78 79 82 80 82 81 81 83 85 83 84 87 80 73 66 62 57 56 63 64 61 62 49 67 70 72 63 73 90 71 40 156 148
77 83 80 79 78 71 71 72 76 81 83 82 83 84 84 82 78 82 86 86 83 81 78 75 69 63 58 60 56 59 66 75 54 51 51 56 65 56 45 75 67 68 157
85 79 77 76 76 73 79 81 82 85 88 88 87 86 83 80 83 85 83 80 78 74 69 65 65 64 60 58 57 54 54 62 68 51 45 47 39 45 34 41 55 30 117
85 80 79 80 79 84 88 85 88 88 89 89 87 82 82 86 84 81 81 78 76 73 71 68 67 66 64 69 68 62 62 59 60 72 68 54 45 45 39 2 346 350 285
88 84 83 80 83 94 92 91 91 91 93 91 86 84 86 85 81 81 83 79 75 71 71 69 66 61 50 43 39 38 40 39 45 49 59 69 71 52 63 44 338 311 296
89 88 81 79 86 87 85 89 92 92 89 89 93 95 90 83 82 77 72 69 66 67 66 59 54 49 38 32 24 11 12 19 26 21 40 55 55 50 22 24 194 242 268
101 90 88 88 89 87 86 88 94 99 101 103 99 93 85 78 74 73 69 65 60 62 54 51 44 42 30 15 12 5 8 8 4 2 9 16 345 294 339 319 309 304 277
96 93 93 97 95 97 96 93 103 109 107 101 96 91 85 81 78 76 69 63 57 50 42 36 31 27 19 21 37 35 30 14 12 344 342 336 331 332 337 328 274 288 284
93 94 102 99 101 101 99 105 107 105 102 98 92 90 88 82 79 74 74 68 53 43 39 35 28 23 21 21 34 42 28 27 11 358 6 356 328 311 319 320 283 274 281
93 97 104 110 103 105 114 109 105 104 100 94 94 94 88 79 72 67 59 58 50 36 32 32 23 19 19 23 29 32 14 7 8 11 3 3 12 0 335 318 295 301 296
97 102 107 114 114 110 114 115 112 109 103 90 94 88 76 70 59 56 54 54 52 44 32 30 21 17 22 26 28 21 7 9 5 5 4 358 355 356 349 345 331 311 288
108 106 112 103 106 109 114 110 108 107 105 95 101 91 81 76 64 54 48 49 40 43 36 43 27 16 17 22 21 12 6 4 11 9 7 357 348 353 359 349 335 323 318
121 121 115 111 105 104 107 107 107 108 106 104 86 80 73 61 53 45 46 28 34 38 35 40 32 17 13 15 14 6 11 7 360 357 355 351 354 355 357 348 336 336 308
123 125 121 114 113 106 102 107 106 108 106 96 92 75 58 47 40 44 54 36 32 42 35 37 28 16 4 6 9 4 0 356 348 342 341 343 342 339 352 344 339 332 320
116 121 119 116 118 113 111 96 107 96 91 89 90 79 51 43 36 46 38 39 35 36 40 36 26 14 357 356 4 6 360 353 350 342 344 345 339 343 343 339 331 325 318
119 115 111 108 111 115 119 103 99 94 101 93 83 76 48 33 36 39 44 42 34 22 37 31 24 13 11 6 11 15 5 10 4 356 1 2 355 345 339 343 339 326 314
114 111 105 102 106 110 104 102 104 101 105 127 103 73 30 17 6 23 40 32 29 21 23 20 21 19 18 17 15 10 7 5 12 14 3 355 348 338 336 337 337 331 312
111 104 100 91 89 87 90 89 88 81 62 22 91 72 44 11 25 35 37 35 23 18 14 16 19 20 16 17 10 5 7 3 3 2 353 343 341 337 336 335 335 331 314
144 128 116 121 111 78 51 55 65 56 25 316 281 117 60 47 31 81 42 30 20 20 7 5 11 14 12 17 14 19 15 18 14 11 4 355 348 341 335 333 332 333 317
184 154 157 154 174 186 218 321 27 35 30 321 292 274 16 55 102 340 22 26 11 10 5 1 6 8 18 11 9 14 22 23 23 15 2 353 346 338 332 332 333 331 314
204 197 208 221 219 213 260 290 309 300 300 255 255 210 220 240 175 336 348 10 347 3 355 360 2 11 18 20 18 19 16 14 12 11 0 352 345 339 336 333 330 327 319
214 215 229 251 251 246 274 292 295 293 301 293 275 266 268 320 294 322 340 335 337 353 350 352 355 11 24 29 30 33 24 14 3 358 358 353 344 340 337 335 330 319 303
232 242 242 236 242 259 269 286 295 302 306 295 275 288 268 272 290 300 314 335 341 338 339 342 352 359 19 26 20 7 9 9 2 0 355 349 345 343 340 338 329 322 314
235 227 216 208 196 186 225 306 319 333 345 325 293 283 279 274 290 304 313 335 336 322 321 335 330 343 354 357 347 355 358 358 356 355 352 350 347 341 345 342 334 329 324
188 184 168 166 165 184 217 266 313 325 320 312 301 294 292 293 305 318 321 322 319 310 309 315 314 310 330 319 327 342 348 355 351 349 353 350 348 343 346 347 338 333 330
Height
5901 5901 5901 5902 5902 5901 5902 5901 5901 5901 5901 5901 5902 5902 5902 5902 5902 5903 5903 5904 5903 5903 5902 5903 5904 5903 5903 5904 5904 5902 5901 5901 5900 5901 5902 5902 5901 5901 5901 5898 5897 5896 5896
5903 5904 5904 5904 5904 5903 5903 5903 5903 5903 5903 5903 5904 5904 5904 5904 5905 5905 5905 5905 5906 5907 5906 5906 5907 5907 5907 5907 5907 5906 5906 5906 5905 5903 5903 5902 5903 5902 5901 5902 5901 5898 5898
5906 5907 5907 5906 5906 5906 5905 5905 5904 5904 5904 5905 5906 5907 5907 5908 5909 5909 5910 5910 5909 5908 5909 5910 5910 5910 5909 5908 5907 5907 5907 5906 5906 5905 5903 5903 5902 5903 5903 5900 5899 5899 5898
5909 5909 5908 5907 5907 5908 5907 5906 5906 5907 5908 5909 5910 5911 5911 5912 5912 5912 5912 5911 5911 5911 5911 5913 5913 5912 5911 5909 5908 5907 5906 5906 5905 5904 5904 5903 5902 5902 5901 5901 5899 5899 5900
5911 5910 5910 5909 5909 5910 5909 5909 5909 5910 5911 5912 5913 5913 5914 5914 5915 5915 5914 5914 5914 5914 5915 5915 5915 5914 5912 5912 5911 5909 5907 5906 5906 5904 5904 5903 5902 5901 5900 5900 5900 5900 5900
5913 5912 5910 5911 5912 5913 5912 5912 5912 5913 5914 5915 5916 5916 5916 5916 5917 5917 5918 5917 5917 5917 5917 5918 5917 5916 5914 5912 5911 5910 5909 5906 5905 5904 5903 5902 5902 5902 5900 5898 5898 5899 5900
5914 5913 5911 5913 5915 5915 5915 5915 5915 5916 5917 5918 5918 5918 5918 5918 5919 5919 5919 5919 5919 5918 5918 5917 5918 5916 5915 5914 5911 5909 5907 5907 5905 5903 5902 5901 5900 5899 5899 5897 5895 5895 5898
5916 5915 5915 5916 5917 5918 5918 5918 5918 5919 5921 5921 5921 5921 5920 5920 5920 5921 5921 5921 5920 5920 5919 5919 5918 5917 5915 5913 5910 5907 5905 5904 5902 5901 5900 5898 5898 5896 5895 5894 5894 5893 5893
5919 5918 5918 5918 5919 5920 5920 5920 5920 5922 5923 5924 5923 5923 5922 5923 5923 5924 5924 5923 5922 5921 5920 5919 5918 5916 5915 5914 5911 5908 5906 5904 5902 5901 5900 5897 5896 5895 5895 5894 5893 5892 5891
5921 5920 5921 5921 5922 5922 5922 5922 5923 5924 5925 5926 5925 5925 5925 5925 5926 5926 5926 5925 5924 5923 5923 5921 5919 5918 5916 5915 5912 5910 5908 5905 5902 5900 5899 5898 5895 5893 5893 5893 5892 5892 5889
5922 5922 5922 5922 5924 5924 5923 5924 5925 5926 5927 5927 5927 5927 5928 5928 5928 5927 5927 5927 5927 5926 5924 5922 5921 5919 5918 5916 5914 5911 5908 5905 5902 5901 5899 5897 5894 5892 5891 5891 5890 5888 5886
5924 5924 5924 5924 5925 5925 5925 5926 5927 5927 5929 5930 5930 5930 5930 5930 5930 5929 5928 5929 5928 5927 5925 5923 5922 5920 5919 5917 5915 5913 5910 5908 5904 5902 5899 5896 5894 5892 5891 5888 5887 5885 5882
5925 5926 5926 5926 5927 5927 5928 5928 5929 5930 5931 5931 5932 5932 5932 5932 5932 5931 5931 5931 5930 5928 5927 5925 5923 5922 5919 5917 5916 5914 5912 5910 5906 5903 5901 5898 5895 5893 5889 5888 5886 5885 5882
5927 5927 5927 5927 5928 5929 5930 5930 5930 5931 5932 5933 5933 5934 5934 5934 5934 5934 5934 5933 5932 5930 5928 5926 5925 5922 5920 5919 5917 5915 5913 5909 5906 5904 5901 5899 5895 5892 5889 5887 5885 5883 5879
5929 5929 5928 5929 5930 5930 5932 5931 5931 5933 5933 5934 5934 5935 5935 5935 5935 5934 5934 5934 5933 5931 5929 5927 5925 5923 5920 5919 5917 5915 5911 5908 5906 5903 5901 5898 5895 5892 5890 5887 5883 5880 5877
5930 5930 5929 5930 5931 5932 5933 5933 5932 5933 5933 5934 5935 5935 5936 5936 5935 5934 5934 5934 5933 5932 5929 5927 5926 5924 5921 5918 5915 5911 5909 5907 5904 5901 5898 5896 5893 5891 5889 5886 5882 5878 5875
5931 5932 5932 5931 5932 5933 5933 5933 5933 5933 5934 5934 5935 5935 5936 5936 5936 5935 5934 5934 5932 5931 5928 5927 5926 5923 5920 5917 5914 5912 5909 5908 5905 5900 5897 5895 5892 5889 5886 5883 5879 5876 5872
5932 5933 5933 5934 5935 5934 5934 5934 5934 5933 5935 5934 5934 5934 5935 5935 5935 5934 5933 5932 5932 5932 5929 5927 5925 5923 5920 5917 5915 5912 5910 5907 5904 5900 5897 5894 5891 5887 5884 5881 5877 5872 5868
5934 5934 5934 5934 5935 5935 5935 5935 5934 5934 5935 5935 5935 5934 5934 5934 5934 5934 5934 5933 5932 5931 5929 5927 5925 5922 5920 5918 5915 5913 5910 5907 5904 5901 5897 5893 5889 5885 5881 5877 5873 5869 5865
5936 5935 5935 5936 5936 5935 5935 5935 5935 5934 5934 5934 5934 5935 5934 5934 5934 5934 5934 5933 5931 5930 5929 5927 5924 5922 5920 5918 5915 5913 5911 5908 5904 5900 5896 5892 5888 5884 5879 5874 5869 5865 5861
5937 5937 5937 5937 5936 5936 5937 5937 5936 5936 5935 5935 5934 5933 5933 5933 5933 5933 5933 5931 5931 5931 5929 5927 5922 5920 5919 5917 5915 5912 5910 5906 5902 5898 5895 5891 5886 5881 5876 5870 5865 5860 5856
5937 5936 5937 5937 5936 5936 5936 5936 5935 5935 5935 5935 5935 5933 5932 5932 5932 5933 5933 5931 5931 5929 5927 5924 5922 5920 5919 5917 5916 5913 5910 5906 5902 5898 5895 5891 5885 5877 5871 5865 5860 5856 5852
5936 5936 5935 5935 5935 5935 5934 5934 5934 5934 5933 5933 5933 5932 5931 5932 5931 5931 5931 5931 5929 5927 5925 5923 5921 5920 5918 5917 5915 5913 5910 5907 5902 5897 5893 5887 5881 5874 5867 5861 5856 5851 5847
5934 5934 5933 5933 5933 5933 5933 5933 5932 5932 5933 5932 5931 5930 5930 5930 5930 5929 5929 5929 5927 5926 5924 5923 5920 5918 5917 5916 5914 5911 5909 5906 5901 5897 5890 5884 5877 5870 5864 5858 5852 5847 5843
5932 5931 5930 5930 5930 5930 5931 5931 5931 5930 5931 5931 5930 5929 5929 5930 5929 5929 5928 5927 5926 5925 5923 5921 5918 5917 5915 5914 5912 5909 5905 5901 5897 5892 5886 5879 5873 5866 5860 5854 5848 5842 5837
5930 5929 5929 5928 5927 5928 5929 5930 5930 5930 5929 5930 5930 5930 5929 5928 5928 5927 5927 5925 5924 5924 5922 5920 5917 5915 5914 5913 5910 5908 5904 5900 5896 5891 5885 5878 5870 5863 5856 5850 5843 5838 5831